This is the latest recevied weather packets stored in our database for station/object KD5FHA. If no packets are shown the sender has not sent any weather packets the latest 10 day(s).
| Time | Temp. | Humidity | Pressure | Rain* | Wind** | Luminosity | Snow |
|---|---|---|---|---|---|---|---|
| 1778095231 | 14.44° C | 81% | 1015 hPa | 0 mm | - | 216 W/m² | - |
| 1778094928 | 14.44° C | 81% | 1015.1 hPa | 0 mm | - | 230 W/m² | - |
| 1778094624 | 13.89° C | 81% | 1015.2 hPa | 0 mm | - | 121 W/m² | - |
| 1778094321 | 13.89° C | 81% | 1015.5 hPa | 0 mm | - | 121 W/m² | - |
| 1778094018 | 14.44° C | 81% | 1015.7 hPa | 0 mm | - | 101 W/m² | - |
| 1778093715 | 14.44° C | 81% | 1015.9 hPa | 0 mm | - | 86 W/m² | - |
| 1778093412 | 14.44° C | 80% | 1015.6 hPa | 0 mm | - | 101 W/m² | - |
| 1778093109 | 14.44° C | 81% | 1015.5 hPa | 0 mm | - | 128 W/m² | - |
| 1778092806 | 14.44° C | 80% | 1015.4 hPa | 0 mm | - | 191 W/m² | - |
| 1778092501 | 13.89° C | 80% | 1015.4 hPa | 0 mm | - | 173 W/m² | - |
| 1778092199 | 13.89° C | 80% | 1015.7 hPa | 0 mm | - | 142 W/m² | - |
| 1778091896 | 13.89° C | 81% | 1015.5 hPa | 0 mm | - | 145 W/m² | - |
| 1778091593 | 13.89° C | 81% | 1015.4 hPa | 0 mm | - | 133 W/m² | - |
| 1778091291 | 13.89° C | 82% | 1015.6 hPa | 0 mm | - | 110 W/m² | - |
| 1778090988 | 13.89° C | 82% | 1015.2 hPa | 0 mm | - | 201 W/m² | - |
| 1778090684 | 13.89° C | 82% | 1015 hPa | 0 mm | - | 161 W/m² | - |
| 1778090381 | 13.89° C | 83% | 1014.3 hPa | 0 mm | - | 212 W/m² | - |
| 1778090078 | 13.33° C | 83% | 1013.9 hPa | 0 mm | - | 220 W/m² | - |
| 1778089774 | 13.89° C | 84% | 1013.7 hPa | 0 mm | - | 187 W/m² | - |
| 1778089473 | 13.89° C | 83% | 1013.4 hPa | 0 mm | - | 198 W/m² | - |
| 1778089169 | 13.89° C | 83% | 1013.7 hPa | 0 mm | - | 247 W/m² | - |
| 1778088866 | 13.89° C | 83% | 1014.2 hPa | 0 mm | - | 266 W/m² | - |
| 1778088563 | 13.33° C | 84% | 1014.1 hPa | 0 mm | - | 282 W/m² | - |
| 1778088260 | 13.33° C | 83% | 1014.3 hPa | 0 mm | - | 176 W/m² | - |
| 1778087957 | 13.89° C | 83% | 1014.9 hPa | 0 mm | - | 183 W/m² | - |
* Rain latest hour (hover to see other rain measurements)
** Current wind speed in m/s (hover to see current wind gust speed)